Showing default

KANOPUS-V 3, 43180

Orbit data source: Space-Track

KANOPUS-V 3, 43180 is a payload satellite owned by VNIIEM (CIS) in SSO that was launched on Thu, 01 Feb 2018 UTC via a SOYUZ-2-1A launch vehicle from the Vostochny Cosmodrome (VOSTO). Payload-class satellites include a variety of spacecraft equipped with specific instruments for various scientific and technological missions. These include communications satellites like Starlink; space stations such as the ISS; scientific satellites like the Hubble; Earth observation satellites from companies like Planet Labs, Umbra, and HawkEye 360; GPS; miniature CubeSats for education and research; and military/defense satellites.

Loading next visibility...
Identifier
43180, 2018-014A
Orbit
SSO
Country
Flag of CISCIS
Related business
Manufacturer
VNIIEM
Mission
Operational Civil Imaging
Bus & Motor
KANOPUS, Unknown motor
Mass
490 kg wet, 490 kg dry
Launch date (UTC)
2018-02-01 (8 years ago)
Launch vehicle
SOYUZ-2-1A
Launch site
Vostochny Cosmodrome (VOSTO)
Object type
Payload
Rocket body
Debris
Shape & HBR
Box + 2 Pan, 3.0 m
Radar Cross Section
1.665 m², Large (>1 m²)

Expand to show TLE details & history
Last TLE update: 1 day ago

TLE from 1 day ago
0 KANOPUS-V 3
1 43180U 18014A   25292.42843543 -.00000064  00000-0  18293-6 0  9993
2 43180  97.3669 197.5511 0001939  85.0220 275.1239 15.23112381428073
Epoch: 2025-10-19T10:16Z
TLE epoch observation values (Epoch: 2025-10-19T10:16:56.821Z)
Latitude
0.00007°
Longitude
15.1691°
Altitude
499.436 km
Speed
7.615 km/s
True Right ascension
13h 10m 12s
True Declination
0° 00' 00"
Sunlit
Object was in daylight at epoch
Visualization orbit readout
Latitude
Unknown
Longitude
Unknown
Altitude
Unknown
Speed
Unknown
Apparent Right ascension
Unknown
Apparent Declination
Unknown
Sunlit
N/A
Visualization observer readout
Local Sidereal Time
12:23:54
Azimuth
Unknown
Elevation
Unknown
Doppler factor
Unknown
Orbital elements
Apogee altitude
494.752 km
Perigee altitude
492.087 km
Semi-major axis
6,871.556 km
Eccentricity
0.00019
Inclination
97.3669°
RAAN
197.5511°
Arg. of periapsis
85.022°
True anomaly
275.10177°
Mean anomaly
275.1239°
Eccentric anomaly
275.11283°
Mean motion
3.81031 °/min
Orbital period
94.48 mins
BSTAR
1.8293e-7
Loading maneuver chart data...
Computing Atmospheric mass density...
Loading historical data...
Loading historical data...
Loading historical data...
Loading historical data...
Loading historical data...
Loading historical data...
Loading historical data...

Documentation

Showing up to 5 results
|